WXM80 ListenWXM80 Stop

You find our weather info also at:

UK Metoffice

WeatherCloud

Weather Underground

Northeastern Weather Network

AWEKAS

Citizen Weather Observer Program (CWOP)

HAMweather, WeatherForYou, PWS Weather


Weather Underground History page Text

Daily Summary for August 6, 2016 Units:  English    Metric   Both
« Previous Day
Next Day »
Daily Weekly Monthly Yearly Custom
  High: Low: Average:
Temperature: 91.7 °F 71.3 °F 79.8 °F
Dew Point: 78.0 °F 63.8 °F 72.1 °F
Humidity: 90 % 62 % 78 %
Wind Speed: 6.5 mph 0.0 mph 1.8 mph
Wind Gust: 11.5 mph - -
Wind:- - SW
Pressure: 29.83 in 29.63 in -
Precipitation: 0.00 in    
Historical Graphs
 
 
Tabular Data for August 6, 2016
Time Temperature Dew Point Pressure Wind Wind Speed Wind Gust Humidity Rainfall Rate (Hourly)
00:01 73.2 °F 66.7 °F 29.83 in SSW 1.3 mph 2.3 mph 80 % 0.00 in
00:06 73.2 °F 66.7 °F 29.83 in SW 1.0 mph 3.5 mph 80 % 0.00 in
00:11 73.1 °F 66.6 °F 29.83 in SW 0.4 mph 2.3 mph 80 % 0.00 in
00:16 73.1 °F 66.6 °F 29.83 in SW 0.2 mph 1.2 mph 80 % 0.00 in
00:26 73.0 °F 66.5 °F 29.83 in WSW 1.3 mph 3.5 mph 80 % 0.00 in
00:31 72.9 °F 66.4 °F 29.83 in WSW 0.8 mph 2.3 mph 80 % 0.00 in
00:36 72.9 °F 66.4 °F 29.83 in SW 1.2 mph 3.5 mph 80 % 0.00 in
00:41 72.8 °F 66.3 °F 29.83 in SW 0.6 mph 2.3 mph 80 % 0.00 in
00:47 72.8 °F 66.3 °F 29.82 in SW 1.2 mph 3.5 mph 80 % 0.00 in
00:52 72.7 °F 66.2 °F 29.82 in SW 1.4 mph 3.5 mph 80 % 0.00 in
00:57 72.6 °F 66.1 °F 29.82 in South 0.8 mph 3.5 mph 80 % 0.00 in
01:02 72.6 °F 65.7 °F 29.82 in SW 1.8 mph 3.5 mph 79 % 0.00 in
01:07 72.5 °F 65.6 °F 29.82 in SSW 1.0 mph 3.5 mph 79 % 0.00 in
01:12 72.5 °F 65.6 °F 29.82 in SW 1.0 mph 5.0 mph 79 % 0.00 in
01:17 72.4 °F 65.5 °F 29.82 in WSW 0.8 mph 2.3 mph 79 % 0.00 in
01:22 72.4 °F 65.5 °F 29.82 in SSW 2.8 mph 4.6 mph 79 % 0.00 in
01:27 72.3 °F 65.1 °F 29.82 in SW 1.5 mph 4.0 mph 78 % 0.00 in
01:32 72.3 °F 65.1 °F 29.82 in SW 3.1 mph 3.5 mph 78 % 0.00 in
01:43 72.2 °F 64.6 °F 29.82 in SSW 2.9 mph 5.0 mph 77 % 0.00 in
01:48 72.2 °F 64.2 °F 29.82 in WSW 3.2 mph 4.0 mph 76 % 0.00 in
01:53 72.2 °F 64.2 °F 29.81 in SSW 0.1 mph 4.6 mph 76 % 0.00 in
01:58 72.2 °F 64.2 °F 29.81 in West 0.8 mph 3.5 mph 76 % 0.00 in
02:03 72.3 °F 64.3 °F 29.81 in SW 1.0 mph 5.0 mph 76 % 0.00 in
02:08 72.3 °F 63.9 °F 29.81 in SSW 0.8 mph 2.0 mph 75 % 0.00 in
02:13 72.2 °F 63.8 °F 29.81 in WSW 1.0 mph 3.5 mph 75 % 0.00 in
02:18 72.2 °F 63.8 °F 29.81 in SW 1.5 mph 3.5 mph 75 % 0.00 in
02:23 72.2 °F 63.8 °F 29.81 in SSW 1.8 mph 3.5 mph 75 % 0.00 in
02:28 72.2 °F 63.8 °F 29.80 in West 1.6 mph 3.5 mph 75 % 0.00 in
02:34 72.1 °F 64.1 °F 29.80 in WSW 1.1 mph 2.0 mph 76 % 0.00 in
02:39 72.1 °F 64.1 °F 29.80 in SW 2.2 mph 3.5 mph 76 % 0.00 in
02:44 72.1 °F 64.1 °F 29.80 in SSW 1.3 mph 3.5 mph 76 % 0.00 in
02:49 72.1 °F 64.5 °F 29.79 in WSW 0.1 mph 3.5 mph 77 % 0.00 in
02:54 72.1 °F 64.5 °F 29.79 in WSW 0.9 mph 3.5 mph 77 % 0.00 in
02:59 72.0 °F 64.4 °F 29.80 in WSW 0.1 mph 1.2 mph 77 % 0.00 in
03:04 72.0 °F 64.8 °F 29.79 in SW 1.2 mph 3.5 mph 78 % 0.00 in
03:09 72.0 °F 64.8 °F 29.79 in SW 0.7 mph 2.3 mph 78 % 0.00 in
03:14 71.9 °F 65.0 °F 29.79 in SW 1.9 mph 4.6 mph 79 % 0.00 in
03:25 71.8 °F 64.9 °F 29.79 in West 1.2 mph 1.2 mph 79 % 0.00 in
03:30 71.7 °F 64.8 °F 29.79 in West 0.2 mph 1.2 mph 79 % 0.00 in
03:35 71.7 °F 65.2 °F 29.79 in WSW 1.3 mph 3.5 mph 80 % 0.00 in
03:40 71.7 °F 65.6 °F 29.79 in SW 3.0 mph 4.6 mph 81 % 0.00 in
03:45 71.6 °F 65.5 °F 29.78 in SW 0.2 mph 1.2 mph 81 % 0.00 in
03:50 71.6 °F 65.8 °F 29.78 in Calm   1.2 mph 82 % 0.00 in
03:55 71.6 °F 65.8 °F 29.78 in SW 0.1 mph 1.0 mph 82 % 0.00 in
04:00 71.6 °F 65.8 °F 29.78 in WSW 0.7 mph 3.5 mph 82 % 0.00 in
04:05 71.5 °F 66.1 °F 29.77 in SW 0.2 mph 2.3 mph 83 % 0.00 in
04:10 71.5 °F 66.1 °F 29.77 in SW 0.5 mph 1.2 mph 83 % 0.00 in
04:16 71.5 °F 66.4 °F 29.77 in SSW 1.3 mph 2.3 mph 84 % 0.00 in
04:21 71.5 °F 66.4 °F 29.77 in SW 2.0 mph 5.0 mph 84 % 0.00 in
04:26 71.4 °F 66.3 °F 29.77 in SW 1.0 mph 4.0 mph 84 % 0.00 in
04:31 71.4 °F 66.3 °F 29.77 in WSW 2.0 mph 2.3 mph 84 % 0.00 in
04:36 71.4 °F 66.7 °F 29.77 in SW 1.0 mph 4.0 mph 85 % 0.00 in
04:41 71.4 °F 66.6 °F 29.77 in Calm   4.0 mph 85 % 0.00 in
04:46 71.3 °F 66.6 °F 29.77 in West 2.9 mph 5.8 mph 85 % 0.00 in
04:51 71.3 °F 66.9 °F 29.77 in WSW 3.0 mph 8.0 mph 86 % 0.00 in
04:56 71.3 °F 66.9 °F 29.77 in SW 2.0 mph 5.0 mph 86 % 0.00 in
05:01 71.3 °F 67.2 °F 29.77 in WSW 2.6 mph 3.0 mph 87 % 0.00 in
05:06 71.3 °F 67.2 °F 29.77 in SW 1.0 mph 5.0 mph 87 % 0.00 in
05:11 71.3 °F 67.2 °F 29.77 in Calm   1.0 mph 87 % 0.00 in
05:16 71.3 °F 67.2 °F 29.77 in Calm   3.0 mph 87 % 0.00 in
05:21 71.3 °F 67.2 °F 29.77 in Calm   3.0 mph 87 % 0.00 in
05:26 71.3 °F 67.2 °F 29.77 in Calm   1.0 mph 87 % 0.00 in
05:31 71.3 °F 67.2 °F 29.77 in SW 1.0 mph 5.0 mph 87 % 0.00 in
05:35 71.3 °F 67.6 °F 29.77 in SW 2.0 mph 3.5 mph 88 % 0.00 in
05:41 71.3 °F 67.6 °F 29.76 in Calm   2.0 mph 88 % 0.00 in
05:46 71.3 °F 67.6 °F 29.76 in SW 1.0 mph 3.0 mph 88 % 0.00 in
05:51 71.3 °F 67.6 °F 29.76 in Calm   1.0 mph 88 % 0.00 in
05:56 71.3 °F 67.5 °F 29.76 in Calm   2.0 mph 88 % 0.00 in
06:06 71.3 °F 67.9 °F 29.76 in Calm   2.0 mph 89 % 0.00 in
06:11 71.3 °F 67.9 °F 29.77 in SSW 0.1 mph 1.2 mph 89 % 0.00 in
06:16 71.3 °F 67.9 °F 29.76 in SW 1.2 mph 3.5 mph 89 % 0.00 in
06:21 71.3 °F 67.9 °F 29.76 in SW 1.1 mph 3.5 mph 89 % 0.00 in
06:26 71.3 °F 68.2 °F 29.76 in SW 1.2 mph 3.5 mph 90 % 0.00 in
06:31 71.4 °F 68.3 °F 29.76 in SSW 1.0 mph 3.5 mph 90 % 0.00 in
06:36 71.5 °F 68.4 °F 29.76 in SW 1.3 mph 4.6 mph 90 % 0.00 in
06:41 71.7 °F 68.6 °F 29.76 in SW 0.9 mph 3.5 mph 90 % 0.00 in
06:46 71.8 °F 68.7 °F 29.77 in WSW 0.4 mph 3.5 mph 90 % 0.00 in
06:51 72.0 °F 68.9 °F 29.76 in SW 1.8 mph 3.5 mph 90 % 0.00 in
06:56 72.2 °F 69.1 °F 29.76 in SSW 0.3 mph 3.5 mph 90 % 0.00 in
07:01 72.4 °F 69.3 °F 29.76 in SW 0.7 mph 2.3 mph 90 % 0.00 in
07:07 72.7 °F 69.6 °F 29.76 in WSW 1.2 mph 1.2 mph 90 % 0.00 in
07:12 73.1 °F 70.0 °F 29.77 in WSW 3.7 mph 6.0 mph 90 % 0.00 in
07:17 73.5 °F 70.4 °F 29.76 in SW 1.9 mph 4.6 mph 90 % 0.00 in
07:22 73.9 °F 70.5 °F 29.76 in WNW 2.2 mph 5.8 mph 89 % 0.00 in
07:27 74.2 °F 70.7 °F 29.76 in SSW 1.4 mph 4.0 mph 89 % 0.00 in
07:32 74.4 °F 70.6 °F 29.76 in SW 0.4 mph 3.5 mph 88 % 0.00 in
07:37 74.6 °F 70.8 °F 29.76 in SW 0.5 mph 3.5 mph 88 % 0.00 in
07:42 74.8 °F 71.0 °F 29.76 in SW 3.3 mph 5.8 mph 88 % 0.00 in
07:47 74.9 °F 71.1 °F 29.76 in SSW 0.5 mph 1.2 mph 88 % 0.00 in
07:52 75.1 °F 71.3 °F 29.76 in SSW 0.9 mph 2.3 mph 88 % 0.00 in
07:58 75.2 °F 71.4 °F 29.76 in Calm   2.3 mph 88 % 0.00 in
08:03 75.3 °F 71.5 °F 29.76 in SW 0.5 mph 2.3 mph 88 % 0.00 in
08:08 75.4 °F 71.6 °F 29.76 in South 0.2 mph 2.3 mph 88 % 0.00 in
08:13 75.5 °F 71.7 °F 29.76 in West 1.4 mph 3.5 mph 88 % 0.00 in
08:18 75.6 °F 71.8 °F 29.76 in West 0.3 mph 2.0 mph 88 % 0.00 in
08:23 75.8 °F 72.0 °F 29.76 in West 3.0 mph 6.9 mph 88 % 0.00 in
08:33 76.2 °F 72.4 °F 29.75 in Calm   1.2 mph 88 % 0.00 in
08:38 76.4 °F 72.6 °F 29.75 in SW 1.6 mph 2.3 mph 88 % 0.00 in
08:43 76.6 °F 72.4 °F 29.75 in SW 0.7 mph 1.2 mph 87 % 0.00 in
08:49 76.8 °F 72.6 °F 29.75 in SSW 1.4 mph 2.3 mph 87 % 0.00 in
08:54 76.9 °F 72.7 °F 29.75 in SW 1.8 mph 3.5 mph 87 % 0.00 in
08:59 77.1 °F 72.9 °F 29.75 in SW 1.8 mph 5.8 mph 87 % 0.00 in
09:04 77.3 °F 72.8 °F 29.75 in WSW 0.7 mph 4.6 mph 86 % 0.00 in
09:09 77.5 °F 73.3 °F 29.75 in WSW 2.1 mph 3.5 mph 87 % 0.00 in
09:14 77.6 °F 73.1 °F 29.75 in SSW 2.4 mph 6.0 mph 86 % 0.00 in
09:19 77.7 °F 73.5 °F 29.74 in SSW 1.2 mph 3.5 mph 87 % 0.00 in
09:24 77.8 °F 73.6 °F 29.74 in SSW 1.3 mph 3.5 mph 87 % 0.00 in
09:29 77.9 °F 73.7 °F 29.74 in SW 1.5 mph 4.6 mph 87 % 0.00 in
09:34 77.9 °F 73.7 °F 29.74 in WSW 0.2 mph 1.0 mph 87 % 0.00 in
09:40 77.9 °F 73.7 °F 29.74 in SW 0.1 mph 5.8 mph 87 % 0.00 in
09:45 78.1 °F 74.3 °F 29.74 in WSW 1.6 mph 3.5 mph 88 % 0.00 in
09:50 78.4 °F 74.5 °F 29.74 in WSW 4.0 mph 5.8 mph 88 % 0.00 in
09:55 78.8 °F 74.9 °F 29.74 in SW 1.2 mph 3.5 mph 88 % 0.00 in
10:00 79.2 °F 75.0 °F 29.74 in SW 0.6 mph 5.8 mph 87 % 0.00 in
10:05 80.0 °F 75.8 °F 29.74 in SW 3.5 mph 5.8 mph 87 % 0.00 in
10:10 80.9 °F 75.6 °F 29.74 in SW 5.0 mph 8.1 mph 84 % 0.00 in
10:15 81.8 °F 76.5 °F 29.74 in WSW 3.4 mph 9.2 mph 84 % 0.00 in
10:20 82.5 °F 75.7 °F 29.73 in SW 5.0 mph 11.5 mph 80 % 0.00 in
10:25 83.1 °F 75.9 °F 29.73 in SW 4.3 mph 8.0 mph 79 % 0.00 in
10:30 83.5 °F 75.9 °F 29.73 in West 3.5 mph 7.0 mph 78 % 0.00 in
10:36 83.9 °F 75.9 °F 29.73 in West 2.0 mph 7.0 mph 77 % 0.00 in
10:41 84.4 °F 76.8 °F 29.73 in SW 6.0 mph 8.0 mph 78 % 0.00 in
10:46 85.0 °F 77.4 °F 29.73 in WSW 2.0 mph 9.0 mph 78 % 0.00 in
10:56 85.6 °F 76.4 °F 29.73 in West 1.0 mph 8.0 mph 74 % 0.00 in
11:01 85.9 °F 77.1 °F 29.73 in WNW 1.6 mph 3.5 mph 75 % 0.00 in
11:06 86.4 °F 76.7 °F 29.73 in SW 4.5 mph 9.2 mph 73 % 0.00 in
11:11 86.7 °F 76.2 °F 29.72 in West 4.6 mph 8.1 mph 71 % 0.00 in
11:16 87.2 °F 76.6 °F 29.72 in SW 4.9 mph 10.4 mph 71 % 0.00 in
11:21 87.6 °F 76.6 °F 29.72 in WSW 4.8 mph 9.2 mph 70 % 0.00 in
11:26 88.1 °F 77.1 °F 29.72 in WNW 2.1 mph 5.8 mph 70 % 0.00 in
11:31 88.7 °F 76.8 °F 29.72 in WSW 6.3 mph 9.0 mph 68 % 0.00 in
11:36 88.9 °F 76.5 °F 29.71 in West 1.9 mph 5.8 mph 67 % 0.00 in
11:41 89.3 °F 76.9 °F 29.71 in SSW 3.7 mph 7.0 mph 67 % 0.00 in
11:46 89.3 °F 76.0 °F 29.71 in SW 4.8 mph 7.0 mph 65 % 0.00 in
11:52 89.1 °F 75.8 °F 29.71 in SW 5.5 mph 6.9 mph 65 % 0.00 in
11:57 88.7 °F 75.9 °F 29.71 in West 4.0 mph 6.9 mph 66 % 0.00 in
12:02 88.5 °F 76.1 °F 29.71 in SW 2.3 mph 3.5 mph 67 % 0.00 in
12:07 88.2 °F 75.9 °F 29.71 in SW 1.9 mph 3.5 mph 67 % 0.00 in
12:12 87.9 °F 75.6 °F 29.71 in West 2.1 mph 5.0 mph 67 % 0.00 in
12:17 87.6 °F 75.3 °F 29.71 in SW 4.1 mph 6.9 mph 67 % 0.00 in
12:22 87.3 °F 75.0 °F 29.71 in WSW 4.7 mph 8.1 mph 67 % 0.00 in
12:27 87.0 °F 75.6 °F 29.71 in WNW 2.8 mph 5.8 mph 69 % 0.00 in
12:32 86.7 °F 74.9 °F 29.71 in SW 3.7 mph 5.8 mph 68 % 0.00 in
12:38 86.6 °F 75.2 °F 29.70 in WSW 2.1 mph 4.0 mph 69 % 0.00 in
12:43 86.6 °F 75.6 °F 29.70 in WSW 2.8 mph 3.5 mph 70 % 0.00 in
12:48 86.5 °F 74.7 °F 29.70 in West 3.7 mph 9.2 mph 68 % 0.00 in
12:53 86.4 °F 75.0 °F 29.70 in SW 4.1 mph 5.8 mph 69 % 0.00 in
12:58 86.4 °F 75.0 °F 29.70 in WSW 3.7 mph 6.9 mph 69 % 0.00 in
13:03 86.4 °F 75.5 °F 29.70 in WSW 4.4 mph 6.9 mph 70 % 0.00 in
13:08 86.3 °F 74.9 °F 29.70 in SSW 3.4 mph 8.1 mph 69 % 0.00 in
13:13 86.2 °F 74.8 °F 29.69 in SSW 3.6 mph 5.8 mph 69 % 0.00 in
13:18 86.0 °F 75.1 °F 29.69 in SW 4.4 mph 5.8 mph 70 % 0.00 in
13:23 85.9 °F 75.0 °F 29.69 in West 2.9 mph 8.1 mph 70 % 0.00 in
13:29 85.8 °F 75.3 °F 29.69 in West 3.5 mph 5.0 mph 71 % 0.00 in
13:34 86.0 °F 75.5 °F 29.69 in WSW 2.4 mph 5.0 mph 71 % 0.00 in
13:39 86.2 °F 75.3 °F 29.69 in SW 5.1 mph 9.2 mph 70 % 0.00 in
13:44 86.3 °F 74.9 °F 29.69 in WSW 5.7 mph 9.0 mph 69 % 0.00 in
13:49 86.3 °F 74.9 °F 29.69 in WSW 3.0 mph 6.9 mph 69 % 0.00 in
13:54 86.3 °F 74.9 °F 29.69 in SW 5.5 mph 6.9 mph 69 % 0.00 in
13:59 86.3 °F 75.4 °F 29.69 in SW 2.7 mph 5.8 mph 70 % 0.00 in
14:04 86.4 °F 75.5 °F 29.69 in West 3.1 mph 6.0 mph 70 % 0.00 in
14:09 86.7 °F 75.3 °F 29.68 in West 6.4 mph 10.0 mph 69 % 0.00 in
14:14 87.3 °F 75.9 °F 29.68 in WNW 5.4 mph 9.2 mph 69 % 0.00 in
14:20 87.8 °F 76.4 °F 29.68 in WSW 6.5 mph 9.0 mph 69 % 0.00 in
14:25 88.3 °F 76.4 °F 29.67 in West 2.5 mph 9.2 mph 68 % 0.00 in
14:30 88.9 °F 76.5 °F 29.67 in SSW 3.2 mph 5.8 mph 67 % 0.00 in
14:35 89.4 °F 77.0 °F 29.67 in WSW 4.1 mph 5.8 mph 67 % 0.00 in
14:40 89.9 °F 76.6 °F 29.67 in SSW 4.8 mph 6.9 mph 65 % 0.00 in
14:45 90.2 °F 76.4 °F 29.67 in SW 4.6 mph 8.1 mph 64 % 0.00 in
14:50 90.4 °F 77.0 °F 29.67 in SE 0.8 mph 2.3 mph 65 % 0.00 in
14:55 90.4 °F 77.0 °F 29.67 in SSE 1.8 mph 5.8 mph 65 % 0.00 in
15:00 90.5 °F 78.0 °F 29.66 in WSW 1.2 mph 3.5 mph 67 % 0.00 in
15:05 90.9 °F 78.0 °F 29.65 in West 2.3 mph 3.5 mph 66 % 0.00 in
15:11 91.4 °F 77.0 °F 29.65 in WSW 2.0 mph 8.0 mph 63 % 0.00 in
15:16 91.7 °F 76.8 °F 29.66 in WSW 3.0 mph 7.0 mph 62 % 0.00 in
15:21 91.7 °F 77.3 °F 29.65 in SW 1.0 mph 5.0 mph 63 % 0.00 in
15:26 91.5 °F 77.6 °F 29.65 in SW 1.0 mph 4.0 mph 64 % 0.00 in
15:31 91.3 °F 77.4 °F 29.65 in SW 1.0 mph 6.0 mph 64 % 0.00 in
15:36 91.1 °F 77.7 °F 29.65 in SW 2.0 mph 4.0 mph 65 % 0.00 in
15:41 91.0 °F 77.1 °F 29.65 in SW 1.0 mph 3.0 mph 64 % 0.00 in
15:46 90.8 °F 77.4 °F 29.65 in SSW 1.0 mph 8.0 mph 65 % 0.00 in
15:51 90.3 °F 77.4 °F 29.65 in Calm   2.0 mph 66 % 0.00 in
15:56 90.1 °F 77.7 °F 29.65 in Calm   2.0 mph 67 % 0.00 in
16:01 89.7 °F 77.3 °F 29.65 in SE 0.5 mph 3.5 mph 67 % 0.00 in
16:11 89.1 °F 76.3 °F 29.65 in SW 4.5 mph 6.9 mph 66 % 0.00 in
16:21 88.6 °F 76.7 °F 29.65 in WSW 0.1 mph 1.2 mph 68 % 0.00 in
16:26 88.4 °F 76.9 °F 29.65 in WSW 2.7 mph 6.0 mph 69 % 0.00 in
16:31 88.2 °F 76.3 °F 29.65 in SW 3.4 mph 4.6 mph 68 % 0.00 in
16:36 88.0 °F 76.5 °F 29.65 in SSE 2.2 mph 6.9 mph 69 % 0.00 in
16:41 87.8 °F 76.4 °F 29.64 in WSW 2.5 mph 3.5 mph 69 % 0.00 in
16:47 87.7 °F 76.3 °F 29.64 in WSW 2.7 mph 4.6 mph 69 % 0.00 in
16:52 87.5 °F 76.5 °F 29.64 in SW 0.2 mph 1.2 mph 70 % 0.00 in
16:57 87.4 °F 76.4 °F 29.64 in Calm   3.5 mph 70 % 0.00 in
17:02 87.5 °F 76.9 °F 29.64 in SSE 0.7 mph 2.3 mph 71 % 0.00 in
17:07 87.6 °F 76.6 °F 29.64 in SE 0.9 mph 3.5 mph 70 % 0.00 in
17:12 87.7 °F 76.7 °F 29.63 in SSE 1.7 mph 9.0 mph 70 % 0.00 in
17:17 87.6 °F 77.0 °F 29.64 in South 1.0 mph 2.3 mph 71 % 0.00 in
17:22 87.6 °F 77.0 °F 29.63 in WNW 0.7 mph 5.0 mph 71 % 0.00 in
17:27 87.6 °F 77.0 °F 29.64 in SSW 0.7 mph 3.5 mph 71 % 0.00 in
17:32 87.6 °F 77.0 °F 29.64 in WSW 2.2 mph 4.6 mph 71 % 0.00 in
17:38 87.6 °F 76.6 °F 29.63 in SW 1.8 mph 3.5 mph 70 % 0.00 in
17:43 87.7 °F 76.7 °F 29.64 in South 0.8 mph 3.5 mph 70 % 0.00 in
17:48 87.7 °F 76.7 °F 29.64 in SE 1.1 mph 4.0 mph 70 % 0.00 in
17:53 87.4 °F 76.4 °F 29.64 in South 0.8 mph 3.5 mph 70 % 0.00 in
17:58 87.3 °F 76.7 °F 29.64 in SE 1.0 mph 2.3 mph 71 % 0.00 in
18:03 87.1 °F 76.5 °F 29.64 in SSW 5.3 mph 8.1 mph 71 % 0.00 in
18:08 86.9 °F 76.8 °F 29.64 in WSW 4.1 mph 6.9 mph 72 % 0.00 in
18:13 86.7 °F 77.0 °F 29.64 in WSW 2.0 mph 4.6 mph 73 % 0.00 in
18:18 86.5 °F 76.8 °F 29.64 in South 4.2 mph 5.0 mph 73 % 0.00 in
18:23 86.3 °F 77.0 °F 29.65 in SW 3.7 mph 8.0 mph 74 % 0.00 in
18:29 86.0 °F 76.7 °F 29.64 in WNW 1.9 mph 3.5 mph 74 % 0.00 in
18:34 85.9 °F 77.1 °F 29.64 in WSW 0.2 mph 2.3 mph 75 % 0.00 in
18:41 85.5 °F 76.7 °F 29.64 in SW 3.7 mph 8.1 mph 75 % 0.00 in
18:46 85.2 °F 76.8 °F 29.64 in WSW 1.8 mph 4.6 mph 76 % 0.00 in
18:52 85.0 °F 76.6 °F 29.65 in WNW 1.0 mph 4.6 mph 76 % 0.00 in
18:57 84.8 °F 76.0 °F 29.64 in WSW 1.5 mph 3.5 mph 75 % 0.00 in
19:02 84.6 °F 75.4 °F 29.65 in WSW 3.2 mph 6.9 mph 74 % 0.00 in
19:07 84.5 °F 75.3 °F 29.65 in SW 1.9 mph 4.6 mph 74 % 0.00 in
19:12 84.3 °F 75.1 °F 29.65 in SW 1.6 mph 4.0 mph 74 % 0.00 in
19:17 84.1 °F 75.3 °F 29.65 in WSW 2.5 mph 5.0 mph 75 % 0.00 in
19:22 83.9 °F 75.5 °F 29.65 in SW 3.1 mph 6.0 mph 76 % 0.00 in
19:27 83.7 °F 75.3 °F 29.65 in SSW 1.5 mph 3.5 mph 76 % 0.00 in
19:32 83.4 °F 75.0 °F 29.65 in WSW 0.2 mph 3.5 mph 76 % 0.00 in
19:37 83.2 °F 74.8 °F 29.66 in SSW 0.1 mph 3.5 mph 76 % 0.00 in
19:43 83.0 °F 74.6 °F 29.66 in West 2.6 mph 6.0 mph 76 % 0.00 in
19:48 82.7 °F 74.0 °F 29.66 in SW 1.4 mph 3.5 mph 75 % 0.00 in
19:53 82.5 °F 73.8 °F 29.66 in WSW 0.3 mph 4.6 mph 75 % 0.00 in
19:58 82.3 °F 73.2 °F 29.66 in WSW 1.0 mph 3.5 mph 74 % 0.00 in
20:03 82.0 °F 72.9 °F 29.66 in WSW 0.3 mph 2.3 mph 74 % 0.00 in
20:08 81.8 °F 72.7 °F 29.66 in WSW 0.3 mph 1.0 mph 74 % 0.00 in
20:13 81.6 °F 72.5 °F 29.66 in WSW 1.9 mph 3.5 mph 74 % 0.00 in
20:18 81.4 °F 72.7 °F 29.66 in SW 1.9 mph 3.5 mph 75 % 0.00 in
20:23 81.2 °F 72.5 °F 29.67 in SW 0.9 mph 4.0 mph 75 % 0.00 in
20:28 81.0 °F 72.7 °F 29.67 in SW 0.1 mph 1.2 mph 76 % 0.00 in
20:34 80.8 °F 72.5 °F 29.67 in SW 0.3 mph   76 % 0.00 in
20:39 80.7 °F 72.8 °F 29.68 in SW 2.7 mph 4.0 mph 77 % 0.00 in
20:44 80.4 °F 72.9 °F 29.68 in SW 2.4 mph 3.5 mph 78 % 0.00 in
20:49 80.2 °F 72.7 °F 29.69 in SW 2.6 mph 4.0 mph 78 % 0.00 in
20:54 79.9 °F 72.8 °F 29.69 in SW 2.2 mph 3.5 mph 79 % 0.00 in
20:59 79.7 °F 72.6 °F 29.69 in SW 2.4 mph 3.5 mph 79 % 0.00 in
21:04 79.5 °F 72.8 °F 29.70 in SSW 1.0 mph 3.0 mph 80 % 0.00 in
21:09 79.3 °F 72.6 °F 29.70 in SSW 2.2 mph 3.5 mph 80 % 0.00 in
21:14 79.1 °F 72.4 °F 29.71 in SSW 1.2 mph 2.3 mph 80 % 0.00 in
21:19 79.0 °F 72.3 °F 29.71 in SSW 0.2 mph 1.0 mph 80 % 0.00 in
21:25 78.8 °F 72.5 °F 29.71 in Calm     81 % 0.00 in
21:30 78.7 °F 72.4 °F 29.71 in SW 1.2 mph 4.0 mph 81 % 0.00 in
21:35 78.5 °F 72.2 °F 29.72 in WNW 1.9 mph 3.5 mph 81 % 0.00 in
21:40 78.4 °F 72.4 °F 29.72 in WSW 0.3 mph 2.3 mph 82 % 0.00 in
21:45 78.2 °F 71.9 °F 29.72 in West 2.5 mph 3.5 mph 81 % 0.00 in
21:50 78.1 °F 71.8 °F 29.72 in WNW 2.5 mph 4.6 mph 81 % 0.00 in
21:55 78.0 °F 71.7 °F 29.72 in West 2.2 mph 4.6 mph 81 % 0.00 in
22:00 78.0 °F 72.1 °F 29.72 in NW 2.0 mph 3.5 mph 82 % 0.00 in
22:05 78.0 °F 72.1 °F 29.72 in WNW 1.4 mph 3.5 mph 82 % 0.00 in
22:16 77.9 °F 72.0 °F 29.72 in WNW 2.0 mph 5.0 mph 82 % 0.00 in
22:20 77.9 °F 72.3 °F 29.72 in WNW 2.0 mph 6.0 mph 83 % 0.00 in
22:26 77.8 °F 72.3 °F 29.72 in WNW 3.0 mph 5.0 mph 83 % 0.00 in
22:30 77.8 °F 72.6 °F 29.72 in WNW 2.0 mph 6.0 mph 84 % 0.00 in
22:35 77.8 °F 72.6 °F 29.72 in West 1.6 mph 5.0 mph 84 % 0.00 in
22:37 77.8 °F 72.6 °F 29.72 in WNW 0.8 mph 4.0 mph 84 % 0.00 in
22:38 77.8 °F 72.6 °F 29.71 in WNW 1.8 mph 3.5 mph 84 % 0.00 in
22:39 77.8 °F 72.6 °F 29.72 in WNW 1.4 mph 5.8 mph 84 % 0.00 in
22:41 77.7 °F 72.5 °F 29.72 in West 2.3 mph 3.5 mph 84 % 0.00 in
22:46 77.7 °F 72.5 °F 29.71 in Calm   1.2 mph 84 % 0.00 in
22:52 77.6 °F 72.4 °F 29.71 in WNW 1.4 mph 5.0 mph 84 % 0.00 in
22:57 77.6 °F 72.4 °F 29.71 in WNW 1.8 mph 3.5 mph 84 % 0.00 in
23:02 77.5 °F 72.6 °F 29.72 in WNW 0.8 mph 3.5 mph 85 % 0.00 in
23:07 77.5 °F 72.6 °F 29.72 in WNW 1.5 mph 6.9 mph 85 % 0.00 in
23:12 77.4 °F 72.5 °F 29.72 in WNW 1.0 mph 2.3 mph 85 % 0.00 in
23:17 77.3 °F 72.4 °F 29.72 in WNW 1.7 mph 3.5 mph 85 % 0.00 in
23:22 77.2 °F 72.3 °F 29.73 in NW 1.4 mph 3.5 mph 85 % 0.00 in
23:27 77.1 °F 72.2 °F 29.72 in WNW 1.3 mph 4.0 mph 85 % 0.00 in
23:32 77.0 °F 72.5 °F 29.73 in West 1.0 mph 1.2 mph 86 % 0.00 in
23:37 76.9 °F 72.4 °F 29.73 in SW 0.3 mph 1.2 mph 86 % 0.00 in
23:43 76.8 °F 72.3 °F 29.73 in SW 0.1 mph 2.3 mph 86 % 0.00 in
23:48 76.7 °F 72.2 °F 29.73 in Calm   1.2 mph 86 % 0.00 in
23:53 76.6 °F 72.1 °F 29.73 in SW 0.2 mph 1.2 mph 86 % 0.00 in
23:58 76.5 °F 72.0 °F 29.73 in SW 0.4 mph 2.3 mph 86 % 0.00 in
Crab Meadow Weather
Compliments of Weather Underground - 2.75 mb

Script developed by  Jim McMurry - jmcmurry@mwt.net Adapted for the template by  Wim van der Kuil - Leuven-Template.eu

Astronomy: It takes Saturn exactly 29.46 years to travel once around the Sun.